| time (UTC) | temp F | wind direction | speed MPH | gust MPH | rain 1hr in | rain 24hr in | rain mn in | humidity % | barometer mb |
| 20260506183559 | 58 | 90 | 0.0 | 2.0 | 0.00 | 0.00 | 0.00 | 52 | 1013.9 |
| 20260506183100 | 58 | 106 | 0.0 | 2.0 | 0.00 | 0.00 | 0.00 | 51 | 1013.9 |
| 20260506182558 | 59 | 0 | 1.0 | 3.0 | 0.00 | 0.00 | 0.00 | 52 | 1013.9 |
| 20260506182058 | 59 | 0 | 1.0 | 4.0 | 0.00 | 0.00 | 0.00 | 50 | 1013.9 |
| 20260506181559 | 59 | 97 | 1.0 | 4.0 | 0.00 | 0.00 | 0.00 | 50 | 1013.9 |
| 20260506181059 | 59 | 96 | 1.0 | 4.0 | 0.00 | 0.00 | 0.00 | 52 | 1013.9 |
| 20260506180559 | 59 | 63 | 0.0 | 3.0 | 0.00 | 0.00 | 0.00 | 50 | 1013.9 |
| 20260506180100 | 59 | 80 | 1.0 | 3.0 | 0.00 | 0.00 | 0.00 | 49 | 1013.9 |
| 20260506175558 | 59 | 105 | 1.0 | 4.0 | 0.00 | 0.00 | 0.00 | 50 | 1013.8 |
| 20260506175058 | 59 | 84 | 2.0 | 4.0 | 0.00 | 0.00 | 0.00 | 47 | 1013.7 |
| 20260506174558 | 59 | 96 | 1.0 | 6.0 | 0.00 | 0.00 | 0.00 | 51 | 1013.7 |
| 20260506174058 | 59 | 79 | 1.0 | 6.0 | 0.00 | 0.00 | 0.00 | 50 | 1013.6 |
| 20260506173557 | 60 | 78 | 2.0 | 6.0 | 0.00 | 0.00 | 0.00 | 48 | 1013.6 |
| 20260506173123 | 60 | 83 | 1.0 | 7.0 | 0.00 | 0.00 | 0.00 | 51 | 1013.6 |
| 20260506172558 | 60 | 134 | 2.0 | 7.0 | 0.00 | 0.00 | 0.00 | 48 | 1013.6 |
| 20260506172058 | 60 | 96 | 2.0 | 7.0 | 0.00 | 0.00 | 0.00 | 47 | 1013.5 |
| 20260506171559 | 60 | 144 | 2.0 | 7.0 | 0.00 | 0.00 | 0.00 | 49 | 1013.4 |
| 20260506171058 | 60 | 81 | 3.0 | 7.0 | 0.00 | 0.00 | 0.00 | 51 | 1013.5 |
| 20260506170602 | 60 | 77 | 1.0 | 4.0 | 0.00 | 0.00 | 0.00 | 49 | 1013.4 |
| 20260506165558 | 60 | 90 | 2.0 | 7.0 | 0.00 | 0.00 | 0.00 | 49 | 1013.3 |
| 20260506165059 | 60 | 74 | 2.0 | 7.0 | 0.00 | 0.00 | 0.00 | 51 | 1013.3 |
| 20260506164558 | 60 | 0 | 2.0 | 6.0 | 0.00 | 0.00 | 0.00 | 44 | 1013.4 |
| 20260506164100 | 60 | 97 | 0.0 | 5.0 | 0.00 | 0.00 | 0.00 | 48 | 1013.3 |
| 20260506163558 | 60 | 76 | 2.0 | 7.0 | 0.00 | 0.00 | 0.00 | 47 | 1013.4 |
| 20260506163109 | 61 | 157 | 2.0 | 7.0 | 0.00 | 0.00 | 0.00 | 46 | 1013.4 |
| 20260506162558 | 61 | 107 | 2.0 | 7.0 | 0.00 | 0.00 | 0.00 | 49 | 1013.4 |
| 20260506162058 | 62 | 86 | 2.0 | 8.0 | 0.00 | 0.00 | 0.00 | 43 | 1013.4 |
| 20260506161605 | 63 | 72 | 2.0 | 9.0 | 0.00 | 0.00 | 0.00 | 46 | 1013.5 |
| 20260506161057 | 63 | 69 | 3.0 | 9.0 | 0.00 | 0.00 | 0.00 | 44 | 1013.5 |
| 20260506160558 | 62 | 109 | 2.0 | 9.0 | 0.00 | 0.00 | 0.00 | 43 | 1013.5 |
| 20260506155600 | 62 | 300 | 2.0 | 8.0 | 0.00 | 0.00 | 0.00 | 46 | 1013.5 |
| 20260506155058 | 62 | 115 | 1.0 | 7.0 | 0.00 | 0.00 | 0.00 | 49 | 1013.6 |
| 20260506154607 | 62 | 9 | 2.0 | 8.0 | 0.00 | 0.00 | 0.00 | 45 | 1013.7 |
| 20260506154059 | 62 | 325 | 0.0 | 10.0 | 0.00 | 0.00 | 0.00 | 45 | 1013.6 |
| 20260506153558 | 63 | 12 | 3.0 | 12.0 | 0.00 | 0.00 | 0.00 | 44 | 1013.7 |
| 20260506153058 | 62 | 91 | 4.0 | 12.0 | 0.00 | 0.00 | 0.00 | 47 | 1013.7 |
| 20260506152558 | 63 | 115 | 2.0 | 10.0 | 0.00 | 0.00 | 0.00 | 45 | 1013.6 |
| 20260506152058 | 62 | 348 | 3.0 | 10.0 | 0.00 | 0.00 | 0.00 | 43 | 1013.6 |
| 20260506151602 | 62 | 24 | 4.0 | 10.0 | 0.00 | 0.00 | 0.00 | 44 | 1013.6 |
| 20260506151058 | 62 | 313 | 2.0 | 7.0 | 0.00 | 0.00 | 0.00 | 44 | 1013.7 |
| 20260506150601 | 61 | 0 | 2.0 | 12.0 | 0.00 | 0.00 | 0.00 | 44 | 1013.6 |
| 20260506145600 | 61 | 83 | 5.0 | 10.0 | 0.00 | 0.00 | 0.00 | 45 | 1013.6 |
| 20260506145057 | 60 | 28 | 1.0 | 8.0 | 0.00 | 0.00 | 0.00 | 48 | 1013.7 |
| 20260506144601 | 60 | 69 | 4.0 | 9.0 | 0.00 | 0.00 | 0.00 | 45 | 1013.7 |
| 20260506144058 | 62 | 74 | 3.0 | 9.0 | 0.00 | 0.00 | 0.00 | 44 | 1013.8 |
| 20260506143559 | 62 | 97 | 2.0 | 7.0 | 0.00 | 0.00 | 0.00 | 46 | 1013.7 |
| 20260506143108 | 62 | 96 | 2.0 | 8.0 | 0.00 | 0.00 | 0.00 | 50 | 1013.7 |
| 20260506142559 | 61 | 151 | 2.0 | 10.0 | 0.00 | 0.00 | 0.00 | 55 | 1013.9 |
| 20260506142058 | 61 | 98 | 3.0 | 11.0 | 0.00 | 0.00 | 0.00 | 45 | 1013.9 |
| 20260506141559 | 62 | 61 | 7.0 | 11.0 | 0.00 | 0.00 | 0.00 | 44 | 1013.9 |
| 20260506141100 | 62 | 5 | 2.0 | 9.0 | 0.00 | 0.00 | 0.00 | 47 | 1013.9 |
| 20260506140601 | 61 | 89 | 2.0 | 7.0 | 0.00 | 0.00 | 0.00 | 49 | 1014.0 |
| 20260506135558 | 59 | 121 | 1.0 | 10.0 | 0.00 | 0.00 | 0.00 | 49 | 1014.1 |
| 20260506135058 | 59 | 67 | 3.0 | 7.0 | 0.00 | 0.00 | 0.00 | 48 | 1014.2 |
| 20260506134559 | 60 | 83 | 3.0 | 7.0 | 0.00 | 0.00 | 0.00 | 49 | 1014.2 |
| 20260506134059 | 60 | 67 | 2.0 | 11.0 | 0.00 | 0.00 | 0.00 | 49 | 1014.2 |
| 20260506133601 | 60 | 84 | 3.0 | 11.0 | 0.00 | 0.00 | 0.00 | 47 | 1014.2 |
| 20260506133104 | 61 | 132 | 4.0 | 11.0 | 0.00 | 0.00 | 0.00 | 48 | 1014.2 |
| 20260506132557 | 61 | 288 | 3.0 | 9.0 | 0.00 | 0.00 | 0.00 | 47 | 1014.1 |
| 20260506132057 | 61 | 5 | 2.0 | 9.0 | 0.00 | 0.00 | 0.00 | 52 | 1014.2 |
| 20260506131602 | 60 | 84 | 2.0 | 9.0 | 0.00 | 0.00 | 0.00 | 49 | 1014.3 |
| 20260506131058 | 60 | 347 | 3.0 | 10.0 | 0.00 | 0.00 | 0.00 | 49 | 1014.3 |
| 20260506130559 | 60 | 296 | 4.0 | 12.0 | 0.00 | 0.00 | 0.00 | 50 | 1014.2 |
| 20260506130105 | 60 | 32 | 2.0 | 12.0 | 0.00 | 0.00 | 0.00 | 47 | 1014.3 |
| 20260506125558 | 60 | 146 | 2.0 | 9.0 | 0.00 | 0.00 | 0.00 | 52 | 1014.3 |
| 20260506125058 | 60 | 82 | 4.0 | 10.0 | 0.00 | 0.00 | 0.00 | 46 | 1014.4 |
| 20260506124601 | 60 | 113 | 5.0 | 11.0 | 0.00 | 0.00 | 0.00 | 52 | 1014.3 |
| 20260506124101 | 60 | 74 | 5.0 | 11.0 | 0.00 | 0.00 | 0.00 | 50 | 1014.3 |
| 20260506123558 | 60 | 96 | 4.0 | 12.0 | 0.00 | 0.00 | 0.00 | 52 | 1014.2 |
| 20260506123058 | 60 | 83 | 7.0 | 12.0 | 0.00 | 0.00 | 0.00 | 48 | 1014.2 |
| 20260506122558 | 60 | 89 | 4.0 | 12.0 | 0.00 | 0.00 | 0.00 | 48 | 1014.1 |
| 20260506122058 | 60 | 46 | 5.0 | 11.0 | 0.00 | 0.00 | 0.00 | 51 | 1014.2 |
| 20260506121606 | 60 | 52 | 4.0 | 10.0 | 0.00 | 0.00 | 0.00 | 48 | 1014.1 |
| 20260506121058 | 60 | 13 | 4.0 | 11.0 | 0.00 | 0.00 | 0.00 | 48 | 1014.2 |
| 20260506120558 | 59 | 0 | 5.0 | 11.0 | 0.00 | 0.00 | 0.00 | 58 | 1014.2 |
| 20260506120111 | 59 | 55 | 6.0 | 12.0 | 0.00 | 0.00 | 0.00 | 51 | 1014.2 |
| 20260506115600 | 58 | 88 | 3.0 | 12.0 | 0.00 | 0.00 | 0.00 | 48 | 1014.2 |
| 20260506115059 | 58 | 66 | 7.0 | 12.0 | 0.00 | 0.00 | 0.00 | 49 | 1014.4 |
| 20260506114623 | 59 | 47 | 6.0 | 11.0 | 0.00 | 0.00 | 0.00 | 51 | 1014.3 |
| 20260506114058 | 59 | 49 | 3.0 | 12.0 | 0.00 | 0.00 | 0.00 | 48 | 1014.4 |
| 20260506113558 | 59 | 13 | 6.0 | 12.0 | 0.00 | 0.00 | 0.00 | 52 | 1014.4 |
| 20260506113057 | 60 | 65 | 6.0 | 12.0 | 0.00 | 0.00 | 0.00 | 48 | 1014.4 |
| 20260506112601 | 61 | 360 | 2.0 | 11.0 | 0.00 | 0.00 | 0.00 | 51 | 1014.6 |
| 20260506112059 | 60 | 279 | 4.0 | 11.0 | 0.00 | 0.00 | 0.00 | 54 | 1014.5 |
| 20260506111600 | 60 | 44 | 4.0 | 10.0 | 0.00 | 0.00 | 0.00 | 51 | 1014.5 |
| 20260506111058 | 60 | 349 | 2.0 | 9.0 | 0.00 | 0.00 | 0.00 | 56 | 1014.6 |
| 20260506110601 | 59 | 101 | 3.0 | 10.0 | 0.00 | 0.00 | 0.00 | 58 | 1014.5 |
| 20260506110058 | 59 | 100 | 6.0 | 10.0 | 0.00 | 0.00 | 0.00 | 57 | 1014.6 |
| 20260506105603 | 59 | 13 | 2.0 | 10.0 | 0.00 | 0.00 | 0.00 | 56 | 1014.5 |
| 20260506105059 | 58 | 322 | 4.0 | 10.0 | 0.00 | 0.00 | 0.00 | 57 | 1014.6 |
| 20260506104557 | 58 | 349 | 3.0 | 9.0 | 0.00 | 0.00 | 0.00 | 60 | 1014.6 |
| 20260506104058 | 57 | 65 | 3.0 | 9.0 | 0.00 | 0.00 | 0.00 | 61 | 1014.5 |
| 20260506103600 | 57 | 38 | 2.0 | 8.0 | 0.00 | 0.00 | 0.00 | 58 | 1014.6 |
| 20260506103057 | 57 | 285 | 3.0 | 10.0 | 0.00 | 0.00 | 0.00 | 58 | 1014.5 |
| 20260506102559 | 56 | 75 | 4.0 | 10.0 | 0.00 | 0.00 | 0.00 | 59 | 1014.6 |
| 20260506102059 | 56 | 352 | 4.0 | 9.0 | 0.00 | 0.00 | 0.00 | 57 | 1014.6 |
| 20260506101558 | 57 | 69 | 3.0 | 11.0 | 0.00 | 0.00 | 0.00 | 57 | 1014.6 |
| 20260506101057 | 56 | 352 | 3.0 | 11.0 | 0.00 | 0.00 | 0.00 | 63 | 1014.5 |
| 20260506100557 | 56 | 331 | 4.0 | 11.0 | 0.00 | 0.00 | 0.00 | 62 | 1014.6 |
| 20260506100058 | 56 | 331 | 3.0 | 9.0 | 0.00 | 0.00 | 0.00 | 64 | 1014.6 |
| 20260506095557 | 56 | 36 | 4.0 | 9.0 | 0.00 | 0.00 | 0.00 | 59 | 1014.6 |
| 20260506095057 | 56 | 119 | 3.0 | 9.0 | 0.00 | 0.00 | 0.00 | 60 | 1014.7 |
| 20260506094556 | 56 | 49 | 1.0 | 12.0 | 0.00 | 0.00 | 0.00 | 59 | 1014.7 |
| 20260506094057 | 55 | 58 | 5.0 | 12.0 | 0.00 | 0.00 | 0.00 | 57 | 1014.7 |
| 20260506093557 | 56 | 45 | 2.0 | 10.0 | 0.00 | 0.00 | 0.00 | 57 | 1014.6 |
| 20260506093111 | 56 | 22 | 4.0 | 10.0 | 0.00 | 0.00 | 0.00 | 56 | 1014.5 |
| 20260506092557 | 56 | 27 | 3.0 | 10.0 | 0.00 | 0.00 | 0.00 | 61 | 1014.5 |
| 20260506092057 | 56 | 94 | 1.0 | 9.0 | 0.00 | 0.00 | 0.00 | 61 | 1014.4 |
| 20260506091558 | 55 | 46 | 4.0 | 11.0 | 0.00 | 0.00 | 0.00 | 59 | 1014.5 |
| 20260506091057 | 55 | 78 | 5.0 | 11.0 | 0.00 | 0.00 | 0.00 | 61 | 1014.5 |
| 20260506090557 | 55 | 79 | 6.0 | 11.0 | 0.00 | 0.00 | 0.00 | 60 | 1014.5 |
| 20260506090113 | 54 | 94 | 3.0 | 10.0 | 0.00 | 0.00 | 0.00 | 61 | 1014.5 |
| 20260506085558 | 54 | 69 | 3.0 | 10.0 | 0.00 | 0.00 | 0.00 | 60 | 1014.4 |
| 20260506085059 | 54 | 78 | 2.0 | 11.0 | 0.00 | 0.00 | 0.00 | 66 | 1014.5 |
| 20260506084558 | 53 | 55 | 5.0 | 12.0 | 0.00 | 0.00 | 0.00 | 62 | 1014.4 |
| 20260506084058 | 53 | 102 | 6.0 | 12.0 | 0.00 | 0.00 | 0.00 | 64 | 1014.5 |
| 20260506083600 | 52 | 22 | 4.0 | 11.0 | 0.00 | 0.00 | 0.00 | 63 | 1014.5 |
| 20260506083059 | 52 | 62 | 6.0 | 12.0 | 0.00 | 0.00 | 0.00 | 62 | 1014.5 |
| 20260506082601 | 52 | 69 | 6.0 | 13.0 | 0.00 | 0.00 | 0.00 | 63 | 1014.5 |
| 20260506082058 | 52 | 52 | 6.0 | 13.0 | 0.00 | 0.00 | 0.00 | 65 | 1014.5 |
| 20260506081558 | 52 | 55 | 5.0 | 15.0 | 0.00 | 0.00 | 0.00 | 65 | 1014.5 |
| 20260506081058 | 51 | 79 | 8.0 | 15.0 | 0.00 | 0.00 | 0.00 | 64 | 1014.6 |
| 20260506080558 | 51 | 50 | 7.0 | 13.0 | 0.00 | 0.00 | 0.00 | 63 | 1014.5 |
| 20260506080110 | 51 | 65 | 6.0 | 14.0 | 0.00 | 0.00 | 0.00 | 64 | 1014.5 |
| 20260506073110 | 50 | 71 | 5.0 | 15.0 | 0.00 | 0.00 | 0.00 | 70 | 1014.4 |
| 20260506072559 | 50 | 91 | 5.0 | 15.0 | 0.00 | 0.00 | 0.00 | 71 | 1014.4 |
| 20260506072058 | 50 | 42 | 6.0 | 15.0 | 0.00 | 0.00 | 0.00 | 71 | 1014.4 |
| 20260506071600 | 50 | 0 | 4.0 | 10.0 | 0.00 | 0.00 | 0.00 | 73 | 1014.3 |
| 20260506071058 | 50 | 17 | 2.0 | 8.0 | 0.00 | 0.00 | 0.00 | 73 | 1014.3 |
| 20260506070558 | 50 | 59 | 3.0 | 8.0 | 0.00 | 0.00 | 0.00 | 73 | 1014.2 |
| 20260506062100 | 50 | 350 | 2.0 | 4.0 | 0.00 | 0.00 | 0.00 | 77 | 1014.0 |
| 20260506061604 | 49 | 336 | 2.0 | 4.0 | 0.00 | 0.00 | 0.00 | 77 | 1014.0 |
| 20260506061059 | 49 | 38 | 0.0 | 4.0 | 0.00 | 0.00 | 0.00 | 76 | 1014.0 |
| 20260506060558 | 49 | 82 | 0.0 | 4.0 | 0.00 | 0.00 | 0.00 | 76 | 1013.9 |
| 20260506051058 | 49 | 0 | 2.0 | 7.0 | 0.00 | 0.00 | 0.00 | 74 | 1013.7 |
| 20260506050558 | 49 | 101 | 3.0 | 7.0 | 0.00 | 0.00 | 0.00 | 74 | 1013.6 |
| 20260506050103 | 49 | 119 | 2.0 | 10.0 | 0.00 | 0.00 | 0.00 | 74 | 1013.6 |
| 20260506045059 | 49 | 86 | 6.0 | 13.0 | 0.00 | 0.00 | 0.00 | 73 | 1013.5 |
| 20260506044617 | 50 | 87 | 5.0 | 15.0 | 0.00 | 0.00 | 0.00 | 73 | 1013.5 |
| 20260506044058 | 50 | 52 | 8.0 | 15.0 | 0.00 | 0.00 | 0.00 | 72 | 1013.4 |
| 20260506043602 | 50 | 82 | 7.0 | 15.0 | 0.00 | 0.00 | 0.00 | 73 | 1013.4 |
| 20260506043103 | 50 | 51 | 5.0 | 13.0 | 0.00 | 0.00 | 0.00 | 73 | 1013.4 |
| 20260506042558 | 50 | 74 | 6.0 | 11.0 | 0.00 | 0.00 | 0.00 | 74 | 1013.3 |
| 20260506042058 | 50 | 90 | 3.0 | 11.0 | 0.00 | 0.00 | 0.00 | 75 | 1013.3 |
| 20260506041610 | 50 | 61 | 6.0 | 11.0 | 0.00 | 0.00 | 0.00 | 76 | 1013.3 |
| 20260506041059 | 50 | 49 | 2.0 | 6.0 | 0.00 | 0.00 | 0.00 | 79 | 1013.3 |
| 20260506040557 | 50 | 0 | 0.0 | 5.0 | 0.00 | 0.00 | 0.00 | 80 | 1013.4 |
| 20260506035558 | 50 | 152 | 0.0 | 3.0 | 0.00 | 0.00 | 0.00 | 80 | 1013.3 |
| 20260506035058 | 50 | 0 | 0.0 | 3.0 | 0.00 | 0.00 | 0.00 | 80 | 1013.3 |
| 20260506034611 | 51 | 0 | 0.0 | 3.0 | 0.00 | 0.00 | 0.00 | 80 | 1013.3 |
| 20260506034057 | 51 | 352 | 1.0 | 4.0 | 0.00 | 0.00 | 0.00 | 80 | 1013.3 |
| 20260506033558 | 51 | 347 | 2.0 | 4.0 | 0.00 | 0.00 | 0.00 | 79 | 1013.3 |
| 20260506033058 | 51 | 0 | 1.0 | 5.0 | 0.00 | 0.00 | 0.00 | 79 | 1013.3 |
| 20260506032558 | 51 | 349 | 2.0 | 5.0 | 0.00 | 0.00 | 0.00 | 78 | 1013.4 |
| 20260506032058 | 51 | 326 | 1.0 | 8.0 | 0.00 | 0.00 | 0.00 | 78 | 1013.3 |
| 20260506031600 | 51 | 0 | 2.0 | 8.0 | 0.00 | 0.00 | 0.00 | 78 | 1013.4 |
| 20260506031058 | 51 | 77 | 2.0 | 5.0 | 0.00 | 0.00 | 0.00 | 78 | 1013.4 |
| 20260506030558 | 51 | 57 | 1.0 | 4.0 | 0.00 | 0.00 | 0.00 | 78 | 1013.4 |
| 20260506030056 | 51 | 50 | 0.0 | 3.0 | 0.00 | 0.00 | 0.00 | 78 | 1013.4 |
| 20260506025557 | 51 | 28 | 0.0 | 3.0 | 0.00 | 0.00 | 0.00 | 78 | 1013.4 |
| 20260506025058 | 51 | 16 | 1.0 | 3.0 | 0.00 | 0.00 | 0.00 | 77 | 1013.4 |
| 20260506024613 | 51 | 48 | 0.0 | 4.0 | 0.00 | 0.00 | 0.00 | 77 | 1013.4 |
| 20260506024058 | 51 | 0 | 0.0 | 5.0 | 0.00 | 0.00 | 0.00 | 77 | 1013.3 |
| 20260506023559 | 51 | 49 | 0.0 | 9.0 | 0.00 | 0.00 | 0.00 | 77 | 1013.5 |
| 20260506023058 | 51 | 39 | 2.0 | 9.0 | 0.00 | 0.00 | 0.00 | 76 | 1013.5 |
| 20260506022558 | 51 | 53 | 2.0 | 9.0 | 0.00 | 0.00 | 0.00 | 76 | 1013.4 |
| 20260506022058 | 51 | 37 | 2.0 | 5.0 | 0.00 | 0.00 | 0.00 | 77 | 1013.3 |
| 20260506021559 | 51 | 63 | 1.0 | 6.0 | 0.00 | 0.00 | 0.00 | 77 | 1013.4 |
| 20260506021102 | 51 | 40 | 1.0 | 6.0 | 0.00 | 0.00 | 0.00 | 77 | 1013.4 |
| 20260506020558 | 51 | 50 | 2.0 | 6.0 | 0.00 | 0.00 | 0.00 | 77 | 1013.3 |
| 20260506020123 | 51 | 21 | 2.0 | 6.0 | 0.00 | 0.00 | 0.00 | 77 | 1013.4 |
| 20260506015559 | 51 | 46 | 1.0 | 7.0 | 0.00 | 0.00 | 0.00 | 77 | 1013.4 |
| 20260506015058 | 51 | 89 | 2.0 | 7.0 | 0.00 | 0.00 | 0.00 | 77 | 1013.4 |
| 20260506014557 | 51 | 52 | 3.0 | 5.0 | 0.00 | 0.00 | 0.00 | 76 | 1013.4 |
| 20260506014100 | 51 | 68 | 1.0 | 6.0 | 0.00 | 0.00 | 0.00 | 76 | 1013.3 |
| 20260506013556 | 51 | 0 | 1.0 | 6.0 | 0.00 | 0.00 | 0.00 | 76 | 1013.4 |
| 20260506013057 | 51 | 98 | 0.0 | 6.0 | 0.00 | 0.00 | 0.00 | 76 | 1013.3 |
| 20260506012558 | 52 | 302 | 1.0 | 8.0 | 0.00 | 0.00 | 0.00 | 76 | 1013.5 |
| 20260506012102 | 52 | 44 | 1.0 | 8.0 | 0.00 | 0.00 | 0.00 | 76 | 1013.4 |
| 20260506011600 | 52 | 352 | 4.0 | 8.0 | 0.00 | 0.00 | 0.00 | 75 | 1013.4 |
| 20260506011058 | 52 | 325 | 2.0 | 9.0 | 0.00 | 0.00 | 0.00 | 75 | 1013.5 |
| 20260506010558 | 52 | 346 | 4.0 | 9.0 | 0.00 | 0.00 | 0.00 | 75 | 1013.4 |
| 20260506010058 | 52 | 346 | 5.0 | 9.0 | 0.00 | 0.00 | 0.00 | 75 | 1013.5 |
| 20260506005557 | 52 | 345 | 3.0 | 6.0 | 0.00 | 0.00 | 0.00 | 74 | 1013.5 |
| 20260506005057 | 52 | 12 | 2.0 | 5.0 | 0.00 | 0.00 | 0.00 | 74 | 1013.6 |
| 20260506004558 | 52 | 348 | 1.0 | 5.0 | 0.00 | 0.00 | 0.00 | 75 | 1013.6 |
| 20260506004058 | 52 | 327 | 3.0 | 9.0 | 0.00 | 0.00 | 0.00 | 73 | 1013.6 |
| 20260506003558 | 52 | 333 | 4.0 | 10.0 | 0.00 | 0.00 | 0.00 | 73 | 1013.6 |
| 20260506003058 | 52 | 360 | 5.0 | 11.0 | 0.00 | 0.00 | 0.00 | 73 | 1013.6 |
| 20260506002609 | 52 | 15 | 6.0 | 11.0 | 0.00 | 0.00 | 0.00 | 72 | 1013.7 |
| 20260506002058 | 52 | 352 | 4.0 | 9.0 | 0.00 | 0.00 | 0.00 | 73 | 1013.7 |
| 20260506001608 | 52 | 345 | 3.0 | 9.0 | 0.00 | 0.00 | 0.00 | 72 | 1013.7 |
| 20260506001058 | 52 | 13 | 4.0 | 9.0 | 0.00 | 0.00 | 0.00 | 72 | 1013.8 |
| 20260506000601 | 52 | 352 | 4.0 | 9.0 | 0.00 | 0.00 | 0.00 | 72 | 1013.7 |
| 20260506000124 | 52 | 29 | 5.0 | 10.0 | 0.00 | 0.00 | 0.00 | 72 | 1013.6 |
| 20260505235558 | 52 | 5 | 4.0 | 10.0 | 0.00 | 0.00 | 0.00 | 72 | 1013.6 |
| 20260505235058 | 52 | 333 | 6.0 | 10.0 | 0.00 | 0.00 | 0.00 | 72 | 1013.7 |
| 20260505234617 | 52 | 346 | 3.0 | 6.0 | 0.00 | 0.00 | 0.00 | 73 | 1013.7 |
| 20260505234058 | 52 | 27 | 4.0 | 6.0 | 0.00 | 0.00 | 0.00 | 73 | 1013.6 |
| 20260505233558 | 52 | 46 | 1.0 | 4.0 | 0.00 | 0.00 | 0.00 | 74 | 1013.7 |
| 20260505233100 | 52 | 360 | 1.0 | 3.0 | 0.00 | 0.00 | 0.00 | 74 | 1013.7 |
| 20260505232557 | 52 | 15 | 0.0 | 7.0 | 0.00 | 0.00 | 0.00 | 73 | 1013.7 |
| 20260505232058 | 52 | 0 | 1.0 | 7.0 | 0.00 | 0.00 | 0.00 | 73 | 1013.7 |
| 20260505231601 | 52 | 360 | 1.0 | 6.0 | 0.00 | 0.00 | 0.00 | 74 | 1013.7 |
| 20260505231058 | 52 | 15 | 2.0 | 6.0 | 0.00 | 0.00 | 0.00 | 73 | 1013.7 |
| 20260505230558 | 52 | 345 | 2.0 | 6.0 | 0.00 | 0.00 | 0.00 | 73 | 1013.7 |
| 20260505225600 | 52 | 346 | 1.0 | 4.0 | 0.00 | 0.00 | 0.00 | 74 | 1013.9 |
| 20260505225058 | 52 | 352 | 1.0 | 3.0 | 0.00 | 0.00 | 0.00 | 75 | 1014.0 |
| 20260505224611 | 52 | 340 | 1.0 | 3.0 | 0.00 | 0.00 | 0.00 | 74 | 1013.9 |
| 20260505224102 | 52 | 352 | 1.0 | 3.0 | 0.00 | 0.00 | 0.00 | 74 | 1013.9 |
| 20260505223558 | 52 | 352 | 1.0 | 3.0 | 0.00 | 0.00 | 0.00 | 74 | 1014.0 |
| 20260505223108 | 52 | 350 | 1.0 | 4.0 | 0.00 | 0.00 | 0.00 | 73 | 1013.9 |
| 20260505222557 | 52 | 333 | 1.0 | 4.0 | 0.00 | 0.00 | 0.00 | 73 | 1013.9 |
| 20260505222057 | 52 | 349 | 2.0 | 4.0 | 0.00 | 0.00 | 0.00 | 73 | 1013.9 |
| 20260505221603 | 52 | 0 | 1.0 | 6.0 | 0.00 | 0.00 | 0.00 | 72 | 1014.0 |
| 20260505221059 | 52 | 352 | 2.0 | 7.0 | 0.00 | 0.00 | 0.00 | 72 | 1013.9 |
| 20260505220558 | 53 | 350 | 3.0 | 8.0 | 0.00 | 0.00 | 0.00 | 72 | 1013.8 |
| 20260505220107 | 53 | 352 | 2.0 | 8.0 | 0.00 | 0.00 | 0.00 | 71 | 1013.9 |
| 20260505215600 | 53 | 329 | 3.0 | 8.0 | 0.00 | 0.00 | 0.00 | 71 | 1013.9 |
| 20260505215058 | 53 | 347 | 3.0 | 8.0 | 0.00 | 0.00 | 0.00 | 71 | 1013.9 |
| 20260505214612 | 53 | 30 | 4.0 | 8.0 | 0.00 | 0.00 | 0.00 | 71 | 1013.8 |
| 20260505214058 | 53 | 330 | 5.0 | 8.0 | 0.00 | 0.00 | 0.00 | 72 | 1013.9 |
| 20260505213600 | 53 | 348 | 3.0 | 8.0 | 0.00 | 0.00 | 0.00 | 71 | 1014.0 |
| 20260505213058 | 53 | 346 | 4.0 | 10.0 | 0.00 | 0.00 | 0.00 | 72 | 1014.0 |
| 20260505212557 | 52 | 333 | 4.0 | 10.0 | 0.00 | 0.00 | 0.00 | 71 | 1013.9 |
| 20260505212057 | 52 | 338 | 4.0 | 9.0 | 0.00 | 0.00 | 0.00 | 72 | 1014.0 |
| 20260505211641 | 52 | 340 | 4.0 | 9.0 | 0.00 | 0.00 | 0.00 | 72 | 1014.0 |
| 20260505211101 | 52 | 348 | 3.0 | 9.0 | 0.00 | 0.00 | 0.00 | 73 | 1013.9 |
| 20260505210558 | 52 | 26 | 3.0 | 9.0 | 0.00 | 0.00 | 0.00 | 73 | 1014.0 |
| 20260505210059 | 52 | 340 | 3.0 | 6.0 | 0.00 | 0.00 | 0.00 | 73 | 1013.9 |
| 20260505205558 | 52 | 332 | 2.0 | 6.0 | 0.00 | 0.00 | 0.00 | 72 | 1014.0 |
| 20260505205058 | 52 | 333 | 2.0 | 6.0 | 0.00 | 0.00 | 0.00 | 72 | 1014.0 |
| 20260505204605 | 52 | 333 | 1.0 | 5.0 | 0.00 | 0.00 | 0.00 | 72 | 1013.9 |
| 20260505204058 | 52 | 335 | 2.0 | 5.0 | 0.00 | 0.00 | 0.00 | 72 | 1013.9 |
| 20260505203558 | 52 | 350 | 2.0 | 6.0 | 0.00 | 0.00 | 0.00 | 71 | 1013.9 |
| 20260505203100 | 52 | 352 | 2.0 | 6.0 | 0.00 | 0.00 | 0.00 | 71 | 1014.0 |
| 20260505202601 | 52 | 338 | 3.0 | 8.0 | 0.00 | 0.00 | 0.00 | 71 | 1014.0 |
| 20260505202058 | 52 | 345 | 3.0 | 8.0 | 0.00 | 0.00 | 0.00 | 70 | 1013.8 |
| 20260505201559 | 52 | 343 | 3.0 | 8.0 | 0.00 | 0.00 | 0.00 | 70 | 1013.8 |
| 20260505201058 | 52 | 323 | 3.0 | 8.0 | 0.00 | 0.00 | 0.00 | 69 | 1013.8 |
| 20260505200558 | 52 | 352 | 2.0 | 9.0 | 0.00 | 0.00 | 0.00 | 69 | 1013.9 |
| 20260505200058 | 52 | 13 | 3.0 | 9.0 | 0.00 | 0.00 | 0.00 | 68 | 1013.8 |
| 20260505195558 | 53 | 331 | 3.0 | 8.0 | 0.00 | 0.00 | 0.00 | 67 | 1013.7 |
| 20260505195057 | 53 | 340 | 3.0 | 8.0 | 0.00 | 0.00 | 0.00 | 67 | 1013.5 |
| 20260505194600 | 53 | 352 | 4.0 | 8.0 | 0.00 | 0.00 | 0.00 | 66 | 1013.6 |
| 20260505194057 | 53 | 313 | 3.0 | 8.0 | 0.00 | 0.00 | 0.00 | 66 | 1013.5 |
| 20260505193558 | 54 | 352 | 2.0 | 8.0 | 0.00 | 0.00 | 0.00 | 65 | 1013.5 |
| 20260505193057 | 54 | 24 | 4.0 | 9.0 | 0.00 | 0.00 | 0.00 | 65 | 1013.4 |
| 20260505192600 | 54 | 15 | 3.0 | 9.0 | 0.00 | 0.00 | 0.00 | 64 | 1013.2 |
| 20260505192058 | 54 | 322 | 3.0 | 9.0 | 0.00 | 0.00 | 0.00 | 64 | 1013.2 |
| 20260505191605 | 55 | 337 | 5.0 | 11.0 | 0.00 | 0.00 | 0.00 | 64 | 1013.2 |
| 20260505191058 | 55 | 336 | 4.0 | 11.0 | 0.00 | 0.00 | 0.00 | 64 | 1013.2 |
| 20260505190601 | 55 | 13 | 5.0 | 11.0 | 0.00 | 0.00 | 0.00 | 64 | 1013.2 |
| 20260505190114 | 56 | 360 | 3.0 | 11.0 | 0.00 | 0.00 | 0.00 | 63 | 1013.2 |
| 20260505185558 | 56 | 352 | 4.0 | 11.0 | 0.00 | 0.00 | 0.00 | 62 | 1013.1 |
| 20260505185058 | 56 | 352 | 6.0 | 11.0 | 0.00 | 0.00 | 0.00 | 61 | 1013.1 |
| 20260505184559 | 56 | 19 | 5.0 | 11.0 | 0.00 | 0.00 | 0.00 | 61 | 1013.1 |
| 20260505184058 | 57 | 360 | 5.0 | 9.0 | 0.00 | 0.00 | 0.00 | 61 | 1013.2 |